Regional Weather Roundup
Issued by NWS

Home | Current Version | Previous Version | Text Only | Print | Product List | Glossary On
Versions: 1 2 3 4 5 6 7 8 9 10 11 12 13 14 15 16 17 18 19 20 21 22 23 24 25 26 27 28 29 30 31 32 33 34 35 36 37 38 39 40 41 42 43 44 45 46 47 48 49 50
526
ASUS43 KDMX 130508
RWRIA

WEATHER ROUNDUP FOR IOWA
NATIONAL WEATHER SERVICE DES MOINES IA
1100 PM CST FRI FEB 12 2016

NOTE: "FAIR" INDICATES FEW OR NO CLOUDS BELOW 12,000 FEET WITH NO
SIGNIFICANT WEATHER AND/OR OBSTRUCTIONS TO VISIBILITY.

* - THESE STATIONS ARE NOT NWS STATIONS...THUS NOT UNDER NWS
QUALITY CONTROL.  THEY ALSO DO NOT REPORT WEATHER SUCH
AS PRECIPITATION OR FOG.

IAZ001>003-012>014-020>022-031>034-043>046-130600-
   NORTHWEST IOWA

CITY           SKY/WX    TMP DP  RH WIND       PRES   REMARKS
CARROLL *      CLEAR      3  -4  72 NW9       30.62S WCI -11
CHEROKEE *     CLOUDY     1  -6  71 N6        30.63S WCI -10
DENISON *      CLEAR      3  -2  78 CALM      30.61R
LE MARS *      CLEAR      3  -4  72 N3        30.65S
ORANGE CITY *  CLEAR      1  -4  78 CALM      30.61S
SHELDON *      CLEAR     -4  -8  84 SW3       30.61R
SIOUX CITY     CLOUDY     9  -5  53 NE8       30.64S WCI  -3
SPENCER        CLOUDY    -2  -9  72 NW8       30.62R WCI -17
STORM LAKE *   CLEAR      0  -6  78 N10       30.60R WCI -17
$$

IAZ055>058-069>071-079>083-090>094-130600-
   SOUTHWEST IOWA

CITY           SKY/WX    TMP DP  RH WIND       PRES   REMARKS
ATLANTIC *     CLEAR      7   0  72 N8        30.63F HAZE    WCI  -6
AUDUBON *      CLEAR      3  -2  78 N5        30.61F WCI  -6
CLARINDA *     MOCLDY    12   3  67 N13       30.65F WCI  -3
COUNCIL BLFS * CLOUDY    10   1  67 N12       30.62F WCI  -4
CRESTON *      CLEAR      7  -2  66 N14       30.61S WCI -10
HARLAN  *      CLEAR      7  -2  66 N8        30.66F WCI  -6
LAMONI         PTCLDY     9   0  67 N14       30.60R WCI  -7
RED OAK *      CLOUDY    12   1  62 N13       30.63F WCI  -3
SHENANDOAH *   PTCLDY    14   5  67 N12       30.64F WCI   0
$$

IAZ047>049-059>061-072>074-084-130600-
   CENTRAL IOWA

CITY           SKY/WX    TMP DP  RH WIND       PRES   REMARKS
AMES           CLOUDY     4  -3  73 NW12      30.62F WCI -12
ANKENY *       CLEAR      5  -2  72 N12       30.63S WCI -11
BOONE *        CLEAR      3  -4  72 NW12      30.59S WCI -13
CHARITON *     MOCLDY     5  -2  72 NW8       30.61R WCI  -8
DES MOINES     CLOUDY     6  -3  66 NW7       30.63R WCI  -6
GRINNELL*      PTCLDY     5   0  78 NW8       30.60S WCI  -8
KNOXVILLE *    CLEAR      7  -2  66 NW9       30.60R WCI  -7
MARSHALLTOWN   CLOUDY     3  -2  79 NW10      30.60R WCI -12
NEWTON *       CLEAR      5   0  78 NW13      30.60F WCI -12
PELLA *        CLOUDY     7   0  72 NW9       30.62F WCI  -7
$$

IAZ004>006-015-016-023>025-035-036-130600-
   NORTH CENTRAL IOWA

CITY           SKY/WX    TMP DP  RH WIND       PRES   REMARKS
ALGONA *       CLEAR      1  -4  78 NW9       30.59R WCI -14
CLARION *      CLEAR      0  -8  71 NW9       30.60S WCI -16
ESTHERVILLE    CLOUDY    -2  -7  79 NW14      30.60R WCI -21
FORT DODGE *   CLOUDY     0  -8  71 NW5       30.62S WCI -10
MASON CITY     CLOUDY    -2  -8  76 NW9       30.58R WCI -18
FOREST CITY *  CLEAR      1  -6  71 NW8       30.57R WCI -12
WEBSTER CITY * CLEAR      0  -6  78 NW12      30.59S WCI -18
IOWA FALLS *     N/A      1  -4  78 NW9       30.60R WCI -14
$$

IAZ007>011-017>019-026>030-037>042-050>054-066-130600-
   NORTHEAST IOWA

CITY           SKY/WX    TMP DP  RH WIND       PRES   REMARKS
CEDAR RAPIDS   CLEAR      6  -4  63 NW14      30.57R WCI -11
CHARLES CITY * CLEAR      1 -11  55 NW12      30.57R WCI -15
CLINTON *      CLEAR      7  -3  64 NW12      30.54R WCI  -8
DECORAH *      CLEAR      0 -11  60 NW6       30.52R WCI -12
DUBUQUE        CLEAR      5  -8  55 N12       30.51R WCI -11
MONTICELLO *   CLEAR      7  -8  51 NW12      30.55R WCI  -9
OELWEIN *      CLEAR      0  -9  65 NW13      30.55S WCI -18
WATERLOO       CLOUDY     2  -7  66 W5        30.59R WCI  -8
$$

IAZ064-065-067-068-078-130600-
   EAST CENTRAL IOWA

CITY           SKY/WX    TMP DP  RH WIND       PRES   REMARKS
DAVENPORT      CLEAR      8  -4  58 NW12      30.54R WCI  -7
IOWA CITY      CLEAR      9  -5  53 NW9       30.61R WCI  -4
MT. PLEASANT * CLEAR     12   1  62 NW12G17   30.59R WCI  -2
MUSCATINE *    CLEAR     10  -2  56 NW12      30.60R WCI  -4
QUAD CITIES    CLEAR      9  -4  55 NW13G21   30.55R WCI  -7
$$

IAZ062-063-075>077-085>089-095>099-130600-
   SOUTHEAST IOWA

CITY           SKY/WX    TMP DP  RH WIND       PRES   REMARKS
BURLINGTON     CLEAR     10   0  63 NW13G22   30.56R WCI  -5
FAIRFIELD *    CLEAR      9  -2  61 NW13      30.59S WCI  -7
FORT MADISON * CLEAR     10   1  67 NW13      30.58R WCI  -5
KEOKUK *       CLEAR     10   3  72 NW8       30.58R WCI  -1
OSKALOOSA *      N/A      7   1  78 NW12      30.61S WCI  -9
CENTERVILLE *  CLEAR      7   1  78 NW12      30.61R WCI  -9
OTTUMWA        CLOUDY     7   1  76 NW12      30.60R WCI  -8
WASHINGTON *   CLEAR      9  -2  61 NW14      30.60R WCI  -8
$$

ABBREVIATIONS USED IN REMARKS
   TC - TEMPERATURES IN CELSIUS
  WCI - WIND CHILL INDEX
   HX - HEAT INDEX
  VSB - VISIBILITY
$$





USA.gov is the U.S. government's official web portal to all federal, state and local government web resources and services.